Weather History for KMKJ - May, 2013

Change the Weather History Date:

Sunday, May 19, 2013

  Actual Average (KGEV) Record (KGEV)
Temperature  
Mean Temperature 68 °F -  
Max Temperature 74 °F 74 °F 81 °F (1974)
Min Temperature 61 °F 48 °F 33 °F (1970)
Cooling Degree Days 2    
Growing Degree Days 18 (Base 50)    
Moisture  
Dew Point 64 °F    
Average Humidity 92    
Maximum Humidity 100    
Minimum Humidity 71    
Precipitation  
Precipitation 0.07 in - - ()
Sea Level Pressure  
Sea Level Pressure 30.14 in    
Wind  
Wind Speed 5 mph (ENE)    
Max Wind Speed 14 mph    
Max Gust Speed 24 mph    
Visibility 9 miles    
Events Rain , Thunderstorm    
Averages and records for this station are not official NWS values.
T = Trace of Precipitation, MM = Missing Value Source: NWS Daily Summary

Daily Weather History Graph

Daily Weather History Graph

Search for Another Location

Airport or City:

Trip Planner

Search our weather history database for the weather conditions in past years. The results will help you decide how hot, cold, wet, or windy it might be!

Date:

Astronomy

May. 19, 2013 Rise Set
Actual Time 6:14 AM EDT 8:29 PM EDT
Civil Twilight 5:45 AM EDT 8:59 PM EDT
Nautical Twilight 5:09 AM EDT 9:35 PM EDT
Astronomical Twilight 4:30 AM EDT 10:14 PM EDT
Moon 2:41 PM EDT (5/19) 2:28 AM EDT (5/19)
Length of Visible Light 15h 14m
Length of Day
14h 15m
Waxing Gibbous, 65% of the Moon is Illuminated
May 19
Waxing Gibbous
May 25
Full
May 31
Last Quarter
Jun 8
New
Jun 16
First Quarter

Hourly Weather History & Observations

Time (EDT) Temp. Dew Point Humidity Pressure Visibility Wind Dir Wind Speed Gust Speed Precip Events Conditions
12:15 AM 65.3 °F 63.9 °F 95% 30.16 in 10.0 mi ENE 8.1 mph - N/A   Light Drizzle
12:35 AM 64.9 °F 64.0 °F 97% 30.17 in 10.0 mi East 5.8 mph - N/A   Light Drizzle
12:55 AM 64.4 °F 64.4 °F 100% 30.16 in 7.0 mi NE 4.6 mph - N/A   Light Drizzle
1:15 AM 64.0 °F 64.0 °F 100% 30.16 in 10.0 mi East 5.8 mph - N/A   Overcast
1:35 AM 64.0 °F 64.0 °F 100% 30.16 in 10.0 mi East 4.6 mph - N/A   Overcast
1:55 AM 64.4 °F 64.4 °F 100% 30.16 in 10.0 mi East 3.5 mph - N/A   Overcast
2:15 AM 64.4 °F 64.4 °F 100% 30.15 in 10.0 mi NE 5.8 mph - N/A   Overcast
2:35 AM 64.4 °F 64.4 °F 100% 30.15 in 10.0 mi ENE 5.8 mph - N/A   Overcast
2:55 AM 64.4 °F 64.4 °F 100% 30.14 in 10.0 mi East 4.6 mph - N/A   Overcast
3:15 AM 64.4 °F 64.0 °F 99% 30.14 in 10.0 mi East 4.6 mph - N/A   Overcast
3:35 AM 64.0 °F 64.0 °F 100% 30.14 in 10.0 mi ENE 5.8 mph - N/A   Overcast
3:55 AM 63.5 °F 63.5 °F 100% 30.14 in 7.0 mi East 6.9 mph - 0.02 in Rain Light Rain
4:15 AM 63.5 °F 63.5 °F 100% 30.14 in 10.0 mi NE 3.5 mph - N/A   Overcast
4:35 AM 63.5 °F 63.5 °F 100% 30.14 in 10.0 mi ENE 5.8 mph - N/A Rain Rain
4:55 AM 63.5 °F 63.5 °F 100% 30.15 in 10.0 mi NE 3.5 mph - N/A   Light Drizzle
5:15 AM 63.1 °F 63.1 °F 100% 30.15 in 7.0 mi East 3.5 mph - N/A Rain Light Rain
5:35 AM 63.1 °F 63.1 °F 100% 30.15 in 4.0 mi East 3.5 mph - N/A Rain Heavy Rain
5:55 AM 63.1 °F 63.1 °F 100% 30.15 in 5.0 mi East 3.5 mph - N/A Rain Rain
6:15 AM 63.1 °F 63.1 °F 100% 30.15 in 7.0 mi ENE 3.5 mph - N/A   Overcast
6:35 AM 63.1 °F 63.1 °F 100% 30.15 in 7.0 mi Calm Calm - N/A   Overcast
6:55 AM 63.5 °F 63.5 °F 100% 30.15 in 10.0 mi NE 3.5 mph - N/A   Overcast
7:15 AM 63.5 °F 63.5 °F 100% 30.16 in 10.0 mi NE 5.8 mph - N/A   Overcast
7:35 AM 63.7 °F 63.7 °F 100% 30.16 in 10.0 mi NE 4.6 mph - N/A   Overcast
8:15 AM 64.4 °F 64.4 °F 100% 30.17 in 10.0 mi ENE 4.6 mph - N/A   Overcast
8:35 AM 65.3 °F 65.3 °F 100% 30.17 in 10.0 mi NNE 3.5 mph - N/A   Overcast
8:55 AM 65.5 °F 65.3 °F 99% 30.18 in 10.0 mi NE 5.8 mph - N/A   Overcast
9:15 AM 66.4 °F 65.3 °F 96% 30.18 in 10.0 mi NE 6.9 mph - N/A   Overcast
9:35 AM 68.2 °F 66.2 °F 93% 30.18 in 10.0 mi NE 6.9 mph - N/A   Overcast
9:55 AM 68.5 °F 66.4 °F 93% 30.18 in 10.0 mi NE 4.6 mph - N/A   Overcast
10:15 AM 70.0 °F 65.5 °F 86% 30.18 in 10.0 mi ENE 3.5 mph - N/A   Overcast
10:55 AM 71.1 °F 66.0 °F 84% 30.17 in 10.0 mi East 5.8 mph - N/A   Overcast
11:15 AM 71.8 °F 65.7 °F 81% 30.17 in 10.0 mi Calm Calm - N/A   Overcast
11:35 AM 71.8 °F 64.0 °F 77% 30.16 in 10.0 mi Calm Calm - N/A   Overcast
11:55 AM 71.6 °F 64.6 °F 78% 30.16 in 10.0 mi East 5.8 mph - N/A   Overcast
12:15 PM 72.5 °F 64.4 °F 76% 30.16 in 10.0 mi East 5.8 mph - N/A   Overcast
12:35 PM 74.7 °F 64.6 °F 71% 30.15 in 10.0 mi East 8.1 mph - N/A   Overcast
12:55 PM 72.5 °F 63.9 °F 74% 30.14 in 10.0 mi ENE 8.1 mph - N/A   Overcast
1:15 PM 72.5 °F 64.6 °F 76% 30.13 in 10.0 mi ENE 9.2 mph - N/A   Overcast
1:35 PM 73.8 °F 65.1 °F 74% 30.12 in 10.0 mi East 8.1 mph - N/A   Overcast
1:55 PM 72.9 °F 64.8 °F 76% 30.12 in 10.0 mi ENE 9.2 mph - N/A   Overcast
2:15 PM 71.4 °F 64.8 °F 79% 30.12 in 5.0 mi ESE 5.8 mph - 0.01 in Rain Light Rain
2:35 PM 70.7 °F 68.7 °F 93% 30.12 in 10.0 mi NW 3.5 mph - 0.01 in Rain , Thunderstorm Light Thunderstorms and Rain
3:15 PM 72.5 °F 68.2 °F 86% 30.12 in 10.0 mi Calm Calm - N/A Thunderstorm Mostly Cloudy
3:35 PM 73.9 °F 66.7 °F 78% 30.11 in 10.0 mi ESE 6.9 mph - N/A   Clear
3:55 PM 73.4 °F 65.1 °F 75% 30.11 in 10.0 mi ESE 4.6 mph - N/A   Scattered Clouds
4:15 PM 72.9 °F 64.2 °F 74% 30.10 in 10.0 mi ESE 8.1 mph - N/A   Clear
4:35 PM 72.7 °F 64.4 °F 75% 30.10 in 10.0 mi SE 5.8 mph - N/A Thunderstorm Scattered Clouds
4:55 PM 73.4 °F 64.4 °F 73% 30.10 in 10.0 mi East 5.8 mph - N/A   Scattered Clouds
5:15 PM 71.6 °F 63.7 °F 76% 30.10 in 10.0 mi East 5.8 mph - N/A   Mostly Cloudy
5:35 PM 71.4 °F 63.9 °F 77% 30.10 in 10.0 mi East 5.8 mph - N/A Thunderstorm Thunderstorm
5:55 PM 71.2 °F 63.5 °F 76% 30.12 in 10.0 mi Calm Calm - N/A Thunderstorm Overcast
6:15 PM 70.7 °F 64.0 °F 79% 30.11 in 10.0 mi Calm Calm - N/A Thunderstorm Unknown
6:35 PM 66.9 °F 61.3 °F 82% 30.13 in 7.0 mi WSW 13.8 mph 24.2 mph N/A Rain Light Rain
6:55 PM 63.5 °F 62.6 °F 97% 30.13 in 7.0 mi WNW 9.2 mph - 0.01 in Rain Rain
7:15 PM 62.2 °F 62.2 °F 100% 30.13 in 10.0 mi SW 6.9 mph - N/A Rain Light Rain
7:35 PM 62.1 °F 62.1 °F 100% 30.13 in 10.0 mi Calm Calm - N/A Rain Light Rain
7:55 PM 62.1 °F 62.1 °F 100% 30.13 in 4.0 mi Calm Calm - 0.02 in Rain , Thunderstorm Rain
8:15 PM 62.2 °F 62.2 °F 100% 30.14 in 7.0 mi Calm Calm - 0.01 in Rain Light Rain
8:35 PM 62.1 °F 62.1 °F 100% 30.15 in 10.0 mi Calm Calm - 0.01 in Rain Light Rain
8:55 PM 62.2 °F 62.2 °F 100% 30.16 in 10.0 mi Calm Calm - 0.01 in Rain Light Rain
9:15 PM 61.9 °F 61.9 °F 100% 30.16 in 7.0 mi Calm Calm - N/A Rain Light Rain
9:35 PM 61.9 °F 61.9 °F 100% 30.16 in 10.0 mi Calm Calm - N/A Rain Light Rain
9:55 PM 61.9 °F 61.9 °F 100% 30.15 in 5.0 mi Calm Calm - N/A   Light Drizzle
10:15 PM 61.7 °F 61.7 °F 100% 30.15 in 3.0 mi Calm Calm - N/A   Overcast
10:35 PM 61.7 °F 61.7 °F 100% 30.16 in 7.0 mi Calm Calm - N/A   Overcast
10:55 PM 61.7 °F 61.7 °F 100% 30.15 in 7.0 mi NE 4.6 mph - N/A   Overcast
11:15 PM 62.1 °F 62.1 °F 100% 30.15 in 10.0 mi NNE 5.8 mph - N/A   Overcast
11:35 PM 62.1 °F 62.1 °F 100% 30.15 in 7.0 mi ENE 6.9 mph - N/A   Overcast
11:55 PM 62.2 °F 62.2 °F 100% 30.16 in 7.0 mi East 3.5 mph - N/A   Overcast